PLF044 EPKK-EPLK

Flight info

Callsign PLF044
Flight time 0h 31m
Altitude 16000
Route KAK DCT POBOK M985 KOTEK N133 NEGUV
Aircraft C295/M-SDFGIRY/S

Departure

Time 2026-05-06 07:10
Airport Kraków John Paul II International Airport (EPKK)

Arrival

Time 2026-05-06 07:42
Airport Łask Air Base (EPLK)
Time Latitude Longitude Altitude Speed Heading
2026-05-06 06:53 50.07517 19.78963 796 ft 0 kts 336°
2026-05-06 07:06 50.07525 19.78957 796 ft 3 kts 338°
2026-05-06 07:06 50.07548 19.78949 796 ft 1 kts 13°
2026-05-06 07:07 50.07567 19.78997 796 ft 11 kts 66°
2026-05-06 07:07 50.07607 19.79142 796 ft 18 kts 65°
2026-05-06 07:07 50.07637 19.79341 796 ft 20 kts 78°
2026-05-06 07:07 50.07670 19.79563 796 ft 22 kts 78°
2026-05-06 07:08 50.07703 19.79807 796 ft 24 kts 79°
2026-05-06 07:08 50.07732 19.80061 797 ft 24 kts 80°
2026-05-06 07:08 50.07758 19.80203 797 ft 16 kts 76°
2026-05-06 07:08 50.07788 19.80337 797 ft 12 kts 43°
2026-05-06 07:09 50.07878 19.80324 797 ft 15 kts 346°
2026-05-06 07:09 50.07975 19.80287 796 ft 12 kts 348°
2026-05-06 07:09 50.08019 19.80205 797 ft 8 kts 255°
2026-05-06 07:09 50.07969 19.79891 797 ft 69 kts 258°
2026-05-06 07:10 50.07817 19.78833 912 ft 118 kts 257°
2026-05-06 07:10 50.07654 19.77616 1663 ft 118 kts 259°
2026-05-06 07:10 50.07500 19.76285 2349 ft 131 kts 259°
2026-05-06 07:10 50.07336 19.74789 2782 ft 147 kts 258°
2026-05-06 07:11 50.07149 19.73196 3356 ft 151 kts 257°
2026-05-06 07:11 50.06901 19.71655 4192 ft 143 kts 253°
2026-05-06 07:11 50.06613 19.70068 4486 ft 162 kts 253°
2026-05-06 07:11 50.06321 19.68361 5015 ft 165 kts 253°
2026-05-06 07:12 50.06061 19.66621 5580 ft 167 kts 256°
2026-05-06 07:12 50.05995 19.64818 6016 ft 173 kts 284°
2026-05-06 07:12 50.06832 19.63432 6546 ft 188 kts 329°
2026-05-06 07:12 50.08094 19.62784 7024 ft 194 kts 340°
2026-05-06 07:13 50.09400 19.62328 7688 ft 185 kts 342°
2026-05-06 07:13 50.10716 19.61912 7879 ft 206 kts 343°
2026-05-06 07:13 50.12212 19.61445 7883 ft 230 kts 343°
2026-05-06 07:13 50.13853 19.61434 7841 ft 251 kts 12°
2026-05-06 07:14 50.15431 19.62785 7831 ft 268 kts 36°
2026-05-06 07:14 50.16824 19.64668 8204 ft 261 kts 41°
2026-05-06 07:14 50.18132 19.66579 8587 ft 256 kts 42°
2026-05-06 07:14 50.19424 19.68450 8979 ft 252 kts 41°
2026-05-06 07:15 50.20715 19.70279 9359 ft 249 kts 40°
2026-05-06 07:15 50.21994 19.72034 9747 ft 247 kts 39°
2026-05-06 07:15 50.23285 19.73788 10098 ft 245 kts 40°
2026-05-06 07:15 50.24569 19.75520 10466 ft 243 kts 39°
2026-05-06 07:16 50.25853 19.77235 10841 ft 243 kts 39°
2026-05-06 07:16 50.27134 19.78943 11203 ft 242 kts 39°
2026-05-06 07:16 50.28403 19.80661 11572 ft 241 kts 40°
2026-05-06 07:16 50.29666 19.82381 11950 ft 240 kts 40°
2026-05-06 07:17 50.30926 19.84087 12332 ft 239 kts 40°
2026-05-06 07:17 50.32183 19.85798 12717 ft 238 kts 41°
2026-05-06 07:17 50.33423 19.87519 13115 ft 238 kts 41°
2026-05-06 07:17 50.34669 19.89225 13510 ft 237 kts 41°
2026-05-06 07:18 50.35905 19.90918 13870 ft 236 kts 41°
2026-05-06 07:18 50.37136 19.92608 14221 ft 235 kts 41°
2026-05-06 07:18 50.38361 19.94289 14579 ft 233 kts 41°
2026-05-06 07:18 50.39577 19.95957 14942 ft 232 kts 41°
2026-05-06 07:19 50.40785 19.97619 15317 ft 231 kts 41°
2026-05-06 07:19 50.41993 19.99278 15649 ft 232 kts 41°
2026-05-06 07:19 50.43238 20.00997 15729 ft 245 kts 42°
2026-05-06 07:19 50.44530 20.02780 15770 ft 256 kts 41°
2026-05-06 07:20 50.45897 20.04657 15791 ft 266 kts 41°
2026-05-06 07:20 50.47387 20.06447 15792 ft 273 kts 34°
2026-05-06 07:20 50.48985 20.08118 15792 ft 278 kts 32°
2026-05-06 07:20 50.50622 20.09784 15799 ft 282 kts 32°
2026-05-06 07:21 50.52269 20.11499 15798 ft 286 kts 34°
2026-05-06 07:21 50.53914 20.13277 15796 ft 288 kts 34°
2026-05-06 07:21 50.55571 20.15073 15796 ft 289 kts 34°
2026-05-06 07:21 50.57234 20.16886 15797 ft 291 kts 34°
2026-05-06 07:22 50.58907 20.18703 15795 ft 292 kts 34°
2026-05-06 07:22 50.60580 20.20512 15794 ft 292 kts 34°
2026-05-06 07:22 50.62259 20.22326 15793 ft 293 kts 34°
2026-05-06 07:22 50.63920 20.24120 15798 ft 293 kts 34°
2026-05-06 07:23 50.65604 20.25941 15788 ft 294 kts 34°
2026-05-06 07:23 50.67289 20.27765 15792 ft 294 kts 34°
2026-05-06 07:23 50.68972 20.29582 15793 ft 294 kts 34°
2026-05-06 07:23 50.70658 20.31407 15797 ft 294 kts 34°
2026-05-06 07:24 50.72301 20.33186 15792 ft 294 kts 34°
2026-05-06 07:24 50.74039 20.35044 15794 ft 292 kts 31°
2026-05-06 07:24 50.75952 20.36022 15712 ft 291 kts
2026-05-06 07:24 50.77911 20.35456 15562 ft 286 kts 330°
2026-05-06 07:25 50.79368 20.33525 15687 ft 267 kts 299°
2026-05-06 07:25 50.80078 20.30938 15750 ft 253 kts 283°
2026-05-06 07:25 50.80650 20.28293 15746 ft 255 kts 284°
2026-05-06 07:25 50.81300 20.25671 15745 ft 257 kts 288°
2026-05-06 07:26 50.82111 20.23133 15749 ft 261 kts 294°
2026-05-06 07:26 50.83116 20.20764 15750 ft 265 kts 302°
2026-05-06 07:26 50.84346 20.18571 15752 ft 269 kts 310°
2026-05-06 07:26 50.85753 20.16598 15754 ft 272 kts 315°
2026-05-06 07:27 50.87302 20.14843 15756 ft 275 kts 322°
2026-05-06 07:27 50.88970 20.13321 15757 ft 278 kts 327°
2026-05-06 07:27 50.90726 20.12008 15759 ft 279 kts 331°
2026-05-06 07:27 50.92406 20.10542 15753 ft 274 kts 321°
2026-05-06 07:28 50.93915 20.08779 15750 ft 271 kts 316°
2026-05-06 07:28 50.95398 20.06888 15754 ft 270 kts 315°
2026-05-06 07:28 50.98331 20.03193 15757 ft 271 kts 317°
2026-05-06 07:29 50.99841 20.01380 15754 ft 272 kts 317°
2026-05-06 07:29 51.01342 19.99564 15767 ft 271 kts 317°
2026-05-06 07:29 51.02843 19.97747 15765 ft 271 kts 317°
2026-05-06 07:29 51.04349 19.95919 15737 ft 273 kts 317°
2026-05-06 07:30 51.05870 19.94069 15517 ft 280 kts 317°
2026-05-06 07:30 51.07447 19.92131 15093 ft 292 kts 317°
2026-05-06 07:30 51.09072 19.90118 14689 ft 300 kts 317°
2026-05-06 07:30 51.10727 19.88049 14289 ft 305 kts 317°
2026-05-06 07:31 51.12400 19.85950 13891 ft 305 kts 317°
2026-05-06 07:31 51.14027 19.83920 13473 ft 296 kts 317°
2026-05-06 07:31 51.15629 19.81917 13024 ft 290 kts 317°
2026-05-06 07:31 51.17196 19.79959 12574 ft 282 kts 317°
2026-05-06 07:32 51.18725 19.78049 12055 ft 279 kts 317°
2026-05-06 07:32 51.20252 19.76141 11548 ft 276 kts 317°
2026-05-06 07:32 51.21756 19.74261 11053 ft 273 kts 317°
2026-05-06 07:32 51.23229 19.72421 10566 ft 266 kts 317°
2026-05-06 07:33 51.24691 19.70694 10152 ft 257 kts 321°
2026-05-06 07:33 51.26166 19.69142 9788 ft 251 kts 322°
2026-05-06 07:33 51.27598 19.67598 9402 ft 245 kts 320°
2026-05-06 07:33 51.28956 19.65995 8937 ft 242 kts 318°
2026-05-06 07:34 51.30303 19.64311 8264 ft 249 kts 317°
2026-05-06 07:34 51.31658 19.62578 7644 ft 251 kts 317°
2026-05-06 07:34 51.33018 19.60824 7030 ft 250 kts 317°
2026-05-06 07:34 51.34360 19.59067 6427 ft 249 kts 316°
2026-05-06 07:35 51.35682 19.57324 5821 ft 238 kts 317°
2026-05-06 07:35 51.36921 19.55696 5191 ft 231 kts 316°
2026-05-06 07:35 51.38176 19.54031 4720 ft 234 kts 316°
2026-05-06 07:35 51.39435 19.52549 4612 ft 223 kts 322°
2026-05-06 07:36 51.40710 19.51205 4463 ft 219 kts 323°
2026-05-06 07:36 51.41971 19.49817 4276 ft 221 kts 320°
2026-05-06 07:36 51.43207 19.48339 4112 ft 221 kts 318°
2026-05-06 07:36 51.44437 19.46826 3940 ft 223 kts 318°
2026-05-06 07:37 51.45671 19.45288 3773 ft 225 kts 318°
2026-05-06 07:37 51.46899 19.43752 3632 ft 222 kts 317°
2026-05-06 07:37 51.48105 19.42222 3496 ft 221 kts 317°
2026-05-06 07:37 51.49312 19.40697 3339 ft 220 kts 317°
2026-05-06 07:38 51.50506 19.39175 3150 ft 218 kts 317°
2026-05-06 07:38 51.51489 19.37593 2905 ft 186 kts 294°
2026-05-06 07:38 51.51843 19.35749 2623 ft 161 kts 279°
2026-05-06 07:38 51.52098 19.34064 2447 ft 156 kts 278°
2026-05-06 07:39 51.52339 19.32358 2215 ft 153 kts 278°
2026-05-06 07:39 51.52602 19.30869 2078 ft 125 kts 284°
2026-05-06 07:39 51.52883 19.29619 1870 ft 113 kts 281°
2026-05-06 07:39 51.53116 19.28381 1740 ft 119 kts 282°
2026-05-06 07:40 51.53371 19.27085 1543 ft 123 kts 280°
2026-05-06 07:40 51.53617 19.25769 1371 ft 124 kts 279°
2026-05-06 07:40 51.53874 19.24443 1212 ft 125 kts 279°
2026-05-06 07:40 51.54149 19.23089 1029 ft 128 kts 280°
2026-05-06 07:41 51.54420 19.21762 896 ft 128 kts 281°
2026-05-06 07:41 51.54669 19.20451 773 ft 113 kts 282°
2026-05-06 07:41 51.54881 19.19356 666 ft 94 kts 280°
2026-05-06 07:41 51.55049 19.18462 632 ft 72 kts 287°
2026-05-06 07:42 51.55151 19.17899 631 ft 24 kts 291°
2026-05-06 07:42 51.55199 19.17693 635 ft 16 kts 291°
2026-05-06 07:42 51.55234 19.17549 635 ft 12 kts 290°
2026-05-06 07:42 51.55258 19.17436 640 ft 3 kts 289°
2026-05-06 07:43 51.55255 19.17447 632 ft 1 kts 289°
2026-05-06 07:43 51.55290 19.17321 636 ft 12 kts 315°
2026-05-06 07:43 51.55381 19.17305 631 ft 16 kts
2026-05-06 07:43 51.55506 19.17332 630 ft 19 kts
2026-05-06 07:44 51.55596 19.17391 635 ft 14 kts 73°
2026-05-06 07:44 51.55573 19.17546 630 ft 15 kts 109°
2026-05-06 07:44 51.55540 19.17718 635 ft 17 kts 105°
2026-05-06 07:44 51.55504 19.17900 632 ft 17 kts 106°
2026-05-06 07:45 51.55476 19.18062 630 ft 8 kts 78°
2026-05-06 07:45 51.55501 19.18087 630 ft 11 kts 24°
2026-05-06 07:45 51.55500 19.18121 641 ft 1 kts 186°
2026-05-06 07:45 51.55490 19.18117 639 ft 0 kts 203°